Temperature
18 18 18 18 18 17 17 17 17 17 17 16 16 16 16 16 15 15 15 15 15 14 14 14 14 14 14 14 14 14 14 14 14 14 14 14 14 14 14 14 13 13 13
18 18 18 18 18 17 17 17 17 17 17 17 16 16 16 16 16 16 15 15 15 15 14 14 14 14 14 14 14 14 14 13 13 14 14 14 14 14 14 14 14 13 13
19 18 18 18 18 18 18 17 17 17 17 17 16 16 16 16 16 16 16 15 15 15 15 14 14 14 14 14 14 14 14 14 13 14 14 14 14 14 14 14 14 13 13
19 19 18 18 18 18 18 17 17 17 17 17 17 16 16 16 16 16 16 15 15 15 15 15 15 14 14 14 14 14 14 14 14 14 14 14 14 14 13 14 14 14 13
19 19 19 18 18 18 18 17 17 17 17 17 17 16 16 16 16 16 15 15 15 15 15 15 15 15 15 14 14 14 14 14 14 13 14 14 14 14 14 13 13 13 13
19 19 19 18 18 18 17 17 17 17 17 16 17 16 16 16 16 16 16 15 15 15 15 15 15 15 14 14 14 14 14 14 14 13 13 13 14 14 14 13 13 13 13
19 19 19 18 18 17 17 17 17 17 17 16 16 16 16 16 16 16 15 15 15 15 15 15 15 15 14 14 14 14 14 13 13 13 13 13 13 14 13 13 13 13 13
19 19 18 18 17 17 17 17 16 16 16 16 16 16 16 16 15 15 15 15 15 15 14 14 14 14 14 14 14 14 14 14 13 13 13 13 13 13 13 12 12 12 12
18 18 18 18 17 17 17 17 16 16 16 16 16 15 15 15 15 15 14 14 14 14 14 14 14 14 14 14 13 13 13 14 13 13 13 13 13 13 12 12 12 12 12
17 17 17 17 17 17 16 16 16 16 16 16 15 15 15 15 15 14 14 13 14 14 14 14 13 13 13 13 13 13 13 13 13 13 13 13 13 13 12 12 12 11 11
16 17 16 16 16 16 16 16 15 15 15 15 14 14 14 14 14 14 13 13 13 13 13 13 13 13 13 12 12 12 12 12 12 12 12 12 12 12 12 12 12 11 11
16 16 15 15 15 15 15 15 14 14 14 14 14 14 13 13 13 13 13 13 13 13 13 13 12 12 12 12 12 12 12 11 11 11 11 11 12 12 12 12 11 11 11
14 14 14 14 14 14 14 13 13 13 13 13 13 13 13 13 12 12 12 12 12 12 12 12 12 11 11 11 11 11 11 11 11 11 10 11 11 11 11 11 11 11 11
14 13 13 13 13 13 13 13 13 13 13 13 12 12 12 12 12 12 11 11 11 11 11 11 11 11 11 11 10 10 10 10 10 10 10 10 10 10 10 10 10 10 10
13 13 12 12 12 12 13 12 12 12 12 12 12 12 12 11 11 11 11 11 11 11 11 10 10 10 10 10 10 10 9 9 9 9 9 9 9 9 9 9 9 10 9
12 12 12 12 12 12 12 12 12 12 12 11 11 11 11 11 11 10 10 10 10 10 10 10 10 9 9 9 9 9 9 9 9 9 9 9 9 9 9 9 9 9 9
11 11 11 11 11 11 11 11 11 11 11 11 11 11 11 10 10 10 10 10 9 9 9 9 9 8 8 8 8 8 8 8 8 8 8 8 8 8 8 8 8 8 8
11 11 11 11 11 11 11 11 11 10 10 10 10 10 10 10 9 9 9 9 9 9 8 8 8 8 8 7 7 7 7 7 7 8 7 7 7 8 8 7 8 8 8
11 10 10 10 10 10 10 10 10 10 10 9 9 9 9 9 9 8 8 8 8 8 7 7 7 7 7 7 7 7 7 7 7 7 7 7 7 7 7 7 7 7 7
10 10 10 10 10 10 10 9 9 9 9 9 9 8 8 8 8 8 7 7 7 7 6 6 6 6 6 6 6 6 6 6 6 6 6 6 6 6 6 6 6 6 7
9 9 9 9 9 9 9 9 8 8 8 8 7 7 7 7 7 6 6 6 6 6 5 5 5 5 5 5 5 5 5 5 5 5 5 5 5 5 5 5 5 6 6
9 9 9 9 8 8 8 8 8 7 7 7 7 6 6 6 6 6 5 5 5 5 5 4 4 4 4 4 4 4 4 4 4 4 4 4 5 5 5 5 5 5 5
8 8 8 8 8 8 7 7 7 6 6 6 6 6 5 5 5 5 4 4 4 4 4 4 4 4 4 4 4 4 3 3 3 3 4 4 4 4 4 4 4 5 5
8 8 7 7 7 7 6 6 6 6 5 5 5 5 4 4 4 4 3 3 3 3 3 3 3 3 3 3 3 3 3 3 3 3 3 3 4 4 4 4 4 5 5
7 7 6 6 6 6 5 5 5 5 5 4 4 4 4 3 3 3 3 3 3 3 3 3 2 2 3 3 3 3 3 3 3 3 3 3 3 4 4 4 4 4 4
6 6 6 5 5 5 5 4 4 4 4 3 3 3 3 3 2 2 2 2 2 2 2 2 2 2 2 2 2 2 3 3 3 3 3 3 3 4 4 4 4 4 4
Wind_Speed
11 10 10 9 9 8 8 9 9 7 8 9 9 9 8 8 7 6 5 5 5 4 3 4 4 3 2 1 1 1 2 3 3 4 3 3 2 4 5 9 11 12 13
11 10 10 9 9 9 9 9 9 9 9 10 9 9 9 8 8 8 7 6 6 6 6 5 5 4 4 3 3 3 3 3 4 4 3 3 4 5 5 5 8 10 12
11 11 10 10 10 10 9 8 8 9 9 9 9 9 9 8 8 8 8 7 7 8 7 7 7 6 6 5 5 4 3 3 4 4 4 3 4 4 4 4 5 6 10
11 11 11 11 11 10 9 8 8 8 9 9 9 9 8 8 8 8 8 7 7 7 7 8 8 8 8 8 6 6 5 4 4 4 5 4 4 4 2 4 5 4 5
12 12 12 11 9 9 9 8 8 8 9 9 9 8 8 7 8 8 8 8 8 7 7 7 8 10 11 9 7 7 6 5 5 5 5 4 5 4 4 4 5 5 5
12 12 10 9 9 9 9 9 8 8 8 8 9 9 9 9 11 12 10 7 7 8 8 7 8 9 11 14 14 12 10 8 8 6 6 7 8 7 5 5 4 4 5
11 10 9 8 9 9 8 8 9 9 8 8 9 9 9 10 12 13 13 8 8 8 8 7 7 7 8 7 10 12 12 15 14 10 10 11 9 8 6 6 7 7 8
8 7 7 8 8 6 6 7 7 6 7 8 8 8 8 9 12 13 12 9 8 8 8 8 8 7 6 6 6 7 8 9 11 11 10 12 11 10 9 9 9 8 7
6 6 7 8 8 7 7 6 6 6 7 7 6 7 8 8 11 12 11 6 7 8 7 7 7 7 9 8 5 7 8 9 12 15 17 17 19 19 13 6 6 6 8
3 3 3 4 6 7 7 6 5 6 6 5 6 6 7 7 8 11 12 5 6 6 5 5 8 8 8 7 6 6 9 10 8 9 9 13 13 15 17 12 10 10 8
5 5 5 4 3 3 3 3 3 3 3 3 4 4 4 5 5 7 9 6 6 5 4 4 4 6 8 9 8 8 12 11 7 8 8 9 8 8 9 10 11 11 11
7 7 6 5 3 2 3 2 2 3 2 2 1 1 1 1 2 3 6 8 6 4 4 4 4 7 8 9 8 11 14 11 6 6 7 8 9 9 10 9 11 13 14
8 7 5 5 4 3 3 2 2 2 2 2 2 2 1 1 0 1 2 4 5 4 4 5 6 8 9 8 10 12 10 6 5 6 8 9 9 10 9 8 9 10 11
8 6 5 5 5 4 3 2 2 2 2 2 1 1 0 0 1 1 1 0 1 3 4 5 7 9 8 9 8 7 5 5 6 7 8 9 8 7 8 8 9 8 8
7 6 5 5 5 5 4 3 2 1 2 3 2 2 2 1 2 2 1 0 1 2 2 2 2 3 4 4 5 5 5 5 6 7 7 8 8 8 9 7 8 7 8
7 6 5 4 4 3 3 4 5 3 3 2 2 2 0 0 1 1 2 3 2 1 1 1 3 4 4 5 6 6 5 6 6 7 7 7 8 8 9 8 7 8 9
7 5 4 4 4 3 3 3 3 5 7 6 5 4 3 2 1 2 3 3 3 1 1 2 3 4 5 5 5 5 6 6 6 6 6 7 7 8 8 8 8 8 9
6 6 5 4 4 4 3 2 2 2 3 3 5 5 4 3 2 3 3 3 3 2 1 3 4 5 5 5 5 5 6 6 5 5 6 6 7 7 8 8 8 9 9
5 4 4 4 4 3 3 3 3 3 3 2 3 4 4 3 3 4 3 2 1 3 3 4 4 5 5 5 5 5 5 5 6 6 6 7 7 7 7 7 8 10 9
5 7 6 4 4 4 4 3 3 3 3 2 2 2 2 3 3 3 2 2 2 3 3 4 4 5 5 5 5 5 5 6 6 6 6 7 7 6 8 9 8 8 8
4 5 7 5 4 3 3 3 3 3 2 2 1 1 2 1 1 2 2 2 2 3 4 4 5 5 5 5 5 6 7 6 6 7 6 7 7 8 8 8 9 9 8
3 3 3 3 3 3 3 3 2 2 2 2 2 2 3 2 2 2 2 3 4 4 4 4 5 4 4 5 5 6 6 7 7 7 7 8 8 8 9 9 9 9 8
3 3 3 3 3 4 4 3 3 3 3 3 3 3 3 3 3 3 3 4 4 4 4 4 4 5 5 5 5 5 6 6 7 8 9 9 9 9 9 10 11 10 9
3 3 3 3 3 3 3 4 4 4 4 3 3 3 3 3 4 4 4 5 5 5 5 5 5 7 8 7 7 7 7 8 9 8 10 10 11 10 10 10 11 11 10
4 4 4 4 4 4 4 3 3 3 3 3 4 4 4 4 4 5 5 5 6 6 7 7 6 7 9 10 10 10 12 13 13 11 10 9 11 12 11 11 11 11 11
5 5 4 4 4 4 3 3 3 4 4 4 4 4 4 5 5 5 6 6 7 7 7 7 9 11 11 11 13 15 15 15 15 14 11 8 10 10 11 10 12 11 11
Wind_Direction
186 189 188 187 187 179 179 184 184 183 178 178 180 179 179 180 176 173 187 184 190 207 209 197 212 206 206 216 189 164 165 158 205 269 267 274 261 260 263 251 253 253 257
189 187 188 183 182 182 187 188 181 179 181 180 178 181 187 187 184 184 196 196 197 208 216 210 220 212 215 225 215 213 209 193 193 245 274 276 261 256 255 259 260 257 256
187 186 188 188 188 191 192 187 181 179 181 180 178 185 191 191 191 194 197 202 205 211 212 210 216 207 217 222 218 219 223 219 199 219 257 261 267 268 272 275 269 268 268
187 187 191 195 195 196 192 186 184 181 181 183 184 188 191 194 197 199 198 203 210 216 216 216 216 210 215 218 221 221 219 222 219 228 252 262 264 272 259 266 282 272 269
186 192 199 200 197 193 191 190 189 188 191 187 187 193 193 196 203 201 203 209 213 221 224 224 224 220 218 216 219 217 214 222 228 233 248 259 262 262 253 246 256 272 274
186 195 196 192 192 196 199 194 192 196 198 192 195 198 201 211 210 206 204 214 215 220 227 232 236 234 234 231 231 224 212 217 225 229 240 243 253 245 243 239 242 260 277
185 189 189 190 196 202 203 199 199 200 199 203 206 203 209 218 217 214 211 210 217 222 224 229 241 241 232 235 242 243 237 233 225 226 236 244 247 240 232 242 236 234 245
180 185 184 185 193 194 194 201 205 203 205 210 212 209 213 223 219 221 220 215 221 225 223 222 227 241 239 230 241 251 251 248 241 236 238 246 246 242 229 236 242 248 255
178 182 183 187 188 186 192 198 201 203 210 212 210 211 217 227 218 218 216 215 226 234 232 228 225 232 243 236 235 252 263 266 261 250 244 247 251 250 241 239 243 244 261
145 151 158 172 177 183 192 195 197 198 208 205 216 217 218 225 220 218 211 212 227 241 244 243 238 240 252 246 234 244 260 265 268 274 264 261 256 256 248 233 235 241 251
92 94 97 108 136 157 162 166 162 169 170 186 216 225 219 220 220 215 205 203 220 232 240 246 248 253 257 257 249 243 252 259 262 259 263 264 260 254 249 237 230 232 240
69 71 72 78 84 94 107 112 120 130 137 157 177 241 254 230 206 208 206 209 208 214 238 249 253 265 271 271 261 255 262 269 260 258 261 264 263 261 257 246 237 235 238
63 60 58 57 59 64 87 114 126 132 151 169 179 194 238 294 2 108 161 198 205 216 246 260 275 281 287 282 270 270 272 262 255 258 262 264 262 262 262 259 254 247 247
63 57 57 58 51 49 59 87 109 118 126 127 147 170 203 326 8 19 34 318 260 255 276 288 292 286 279 273 279 279 263 251 252 259 267 269 272 270 267 263 265 261 260
58 54 50 52 59 55 50 58 84 97 139 144 166 172 170 199 246 223 166 342 297 268 286 304 301 299 297 290 287 281 276 273 268 266 269 274 275 272 271 265 261 261 258
53 48 44 45 48 48 47 32 34 58 59 85 114 127 122 189 250 311 342 349 346 7 86 302 290 286 284 287 291 292 287 279 275 274 273 271 273 274 276 272 263 259 261
54 45 39 38 33 32 45 51 27 20 34 44 56 77 92 68 21 327 344 3 4 52 24 296 291 290 289 290 288 286 288 289 288 286 283 282 281 280 277 274 270 265 263
46 42 41 31 24 28 38 50 78 82 45 21 27 45 48 45 29 11 27 41 11 13 305 289 291 292 292 292 291 289 289 292 294 293 291 289 289 287 285 281 274 268 269
37 28 26 25 26 33 40 49 59 71 78 63 29 18 19 25 31 34 58 54 344 322 311 301 298 299 299 296 293 293 293 293 295 296 294 293 295 293 288 284 281 277 271
27 24 29 30 28 32 37 44 49 61 69 65 49 7 5 32 21 1 4 347 326 312 308 305 305 304 304 304 305 305 306 304 304 299 297 297 294 291 290 289 288 287 281
20 17 24 29 27 35 40 45 53 66 70 62 6 346 48 45 342 322 325 319 307 300 299 299 298 299 299 300 301 301 303 301 299 300 300 300 300 298 293 289 288 286 282
19 19 24 24 32 40 42 43 49 53 36 11 347 3 19 29 2 340 327 319 313 307 304 300 299 297 299 301 301 303 304 303 303 303 301 297 295 293 292 292 291 290 288
20 24 30 33 40 42 44 40 40 35 24 13 9 10 9 6 358 352 340 329 324 320 317 318 317 311 309 309 306 301 299 301 304 305 303 301 299 296 294 292 289 288 287
31 37 45 41 45 50 51 45 43 39 29 19 14 13 13 9 359 350 341 332 330 328 327 326 320 317 320 322 319 315 312 312 312 305 300 296 294 292 291 289 289 288 287
48 48 47 47 50 50 49 47 41 36 30 22 15 11 4 359 353 347 342 338 338 334 332 332 329 329 326 326 325 323 320 317 312 309 302 294 290 288 289 289 289 292 290
52 56 55 52 51 45 41 33 28 26 21 16 10 7 5 2 358 354 350 347 342 337 334 332 333 334 331 330 328 327 323 317 313 311 303 291 288 287 291 290 291 291 290
Height
1511 1515 1518 1521 1525 1527 1529 1532 1534 1536 1537 1539 1541 1542 1543 1544 1545 1546 1548 1549 1550 1551 1552 1553 1553 1554 1555 1555 1556 1556 1556 1556 1556 1556 1556 1556 1556 1556 1555 1555 1554 1553 1552
1509 1512 1515 1518 1521 1524 1526 1529 1531 1533 1535 1536 1538 1539 1540 1542 1543 1544 1545 1546 1547 1548 1549 1550 1551 1552 1552 1553 1553 1554 1554 1554 1554 1553 1553 1553 1553 1553 1552 1551 1551 1550 1549
1506 1509 1512 1514 1517 1520 1523 1526 1528 1530 1532 1533 1535 1536 1537 1538 1540 1541 1542 1544 1545 1546 1547 1548 1549 1549 1549 1550 1550 1551 1551 1551 1551 1550 1550 1550 1549 1549 1549 1548 1547 1546 1545
1503 1506 1509 1511 1514 1517 1520 1522 1525 1526 1528 1529 1531 1533 1534 1535 1536 1538 1539 1540 1541 1542 1543 1544 1545 1546 1546 1547 1547 1547 1548 1547 1547 1547 1546 1545 1545 1545 1544 1543 1542 1542 1541
1501 1503 1506 1509 1512 1514 1517 1519 1521 1523 1525 1526 1528 1529 1530 1531 1532 1534 1535 1536 1537 1538 1539 1540 1541 1542 1542 1543 1543 1544 1544 1543 1543 1542 1541 1541 1540 1540 1540 1539 1538 1537 1536
1497 1500 1503 1506 1508 1510 1513 1515 1517 1519 1521 1523 1524 1525 1526 1526 1527 1529 1531 1532 1533 1534 1535 1536 1537 1537 1538 1538 1539 1539 1539 1539 1538 1537 1536 1535 1535 1535 1535 1534 1533 1531 1529
1493 1496 1499 1502 1504 1506 1509 1511 1512 1514 1516 1518 1519 1520 1521 1523 1524 1525 1527 1528 1529 1529 1530 1531 1532 1532 1533 1533 1533 1533 1533 1533 1533 1533 1531 1530 1529 1529 1529 1528 1527 1525 1524
1490 1493 1496 1499 1500 1502 1504 1506 1507 1509 1510 1512 1514 1515 1516 1518 1519 1520 1522 1523 1523 1524 1525 1526 1526 1527 1527 1527 1527 1527 1527 1526 1526 1526 1525 1524 1523 1523 1523 1522 1520 1518 1516
1487 1489 1491 1494 1496 1498 1500 1501 1503 1505 1506 1507 1509 1510 1511 1512 1514 1515 1517 1517 1518 1518 1519 1520 1520 1521 1521 1521 1521 1520 1519 1519 1519 1518 1517 1516 1516 1516 1515 1514 1512 1511 1507
1484 1487 1489 1492 1494 1495 1497 1498 1499 1500 1501 1503 1504 1505 1505 1506 1508 1509 1510 1511 1512 1512 1513 1514 1514 1515 1515 1515 1514 1513 1512 1511 1511 1510 1509 1508 1507 1507 1507 1506 1504 1502 1499
1483 1485 1487 1489 1491 1492 1493 1494 1495 1496 1497 1497 1499 1500 1501 1502 1503 1504 1504 1505 1506 1506 1506 1507 1507 1508 1508 1508 1507 1506 1505 1504 1503 1501 1500 1499 1498 1497 1496 1496 1495 1493 1491
1483 1484 1486 1487 1488 1489 1489 1490 1491 1492 1493 1494 1495 1496 1497 1497 1498 1499 1499 1499 1500 1500 1500 1500 1501 1501 1501 1500 1500 1499 1498 1496 1494 1492 1491 1489 1488 1487 1486 1486 1485 1483 1482
1484 1484 1485 1486 1486 1487 1487 1488 1488 1490 1491 1491 1492 1493 1493 1494 1494 1494 1494 1495 1495 1495 1495 1495 1494 1494 1494 1493 1493 1491 1490 1488 1486 1484 1482 1481 1480 1478 1477 1475 1474 1473 1471
1485 1486 1486 1486 1486 1486 1486 1486 1487 1488 1488 1489 1490 1490 1490 1490 1490 1491 1491 1491 1491 1491 1490 1489 1489 1488 1487 1487 1486 1484 1483 1481 1479 1477 1474 1473 1471 1469 1467 1466 1464 1463 1461
1487 1487 1486 1486 1486 1486 1486 1486 1486 1486 1487 1487 1488 1488 1488 1488 1488 1488 1488 1487 1486 1486 1485 1484 1483 1482 1481 1480 1478 1477 1475 1473 1471 1469 1467 1464 1462 1460 1458 1457 1455 1453 1451
1488 1488 1488 1487 1487 1487 1486 1486 1486 1486 1486 1486 1486 1486 1486 1486 1486 1485 1485 1484 1483 1482 1481 1479 1478 1477 1475 1474 1472 1470 1468 1466 1464 1462 1459 1457 1454 1452 1450 1448 1446 1444 1441
1491 1490 1489 1488 1488 1487 1487 1486 1486 1486 1486 1485 1485 1485 1484 1484 1483 1482 1481 1480 1479 1478 1476 1475 1473 1472 1471 1469 1467 1465 1462 1460 1458 1455 1453 1450 1447 1444 1442 1439 1437 1435 1433
1492 1491 1490 1489 1489 1488 1487 1486 1485 1484 1484 1484 1484 1483 1483 1482 1480 1479 1478 1477 1475 1474 1472 1471 1469 1467 1465 1463 1461 1459 1456 1454 1452 1449 1446 1443 1440 1437 1434 1431 1429 1427 1424
1492 1491 1491 1490 1489 1488 1487 1486 1485 1484 1483 1483 1482 1481 1480 1479 1478 1477 1475 1473 1471 1470 1468 1466 1464 1462 1460 1458 1456 1453 1450 1448 1445 1442 1439 1436 1433 1430 1426 1423 1421 1418 1416
1493 1492 1490 1489 1488 1487 1486 1485 1484 1483 1482 1481 1480 1479 1477 1476 1474 1473 1471 1469 1467 1466 1464 1462 1459 1457 1455 1452 1450 1447 1444 1441 1438 1435 1432 1429 1426 1423 1419 1416 1413 1411 1408
1492 1491 1490 1488 1487 1486 1485 1483 1482 1481 1480 1478 1477 1476 1474 1472 1471 1469 1467 1465 1463 1461 1459 1457 1455 1452 1449 1446 1443 1440 1437 1434 1432 1429 1425 1423 1419 1416 1413 1410 1407 1404 1401
1491 1490 1488 1487 1485 1484 1482 1481 1480 1479 1477 1476 1474 1473 1471 1469 1467 1465 1463 1461 1459 1457 1455 1452 1449 1447 1443 1440 1437 1434 1431 1428 1425 1422 1419 1416 1412 1409 1406 1403 1400 1398 1395
1489 1488 1486 1485 1483 1482 1480 1479 1478 1476 1475 1473 1471 1469 1468 1466 1464 1461 1459 1457 1455 1452 1450 1447 1444 1441 1438 1435 1432 1429 1425 1422 1419 1416 1412 1409 1406 1403 1400 1397 1394 1391 1389
1488 1486 1484 1483 1481 1480 1478 1477 1475 1474 1472 1470 1469 1467 1465 1463 1461 1459 1456 1453 1450 1448 1445 1442 1439 1435 1432 1429 1426 1423 1420 1417 1413 1410 1406 1403 1400 1397 1394 1391 1388 1385 1383
1486 1484 1483 1481 1480 1478 1477 1475 1473 1472 1470 1468 1466 1464 1462 1460 1458 1455 1453 1450 1447 1443 1440 1437 1434 1430 1427 1424 1420 1417 1414 1411 1407 1404 1400 1397 1393 1390 1388 1385 1382 1379 1377
1484 1483 1481 1480 1478 1477 1475 1474 1472 1470 1468 1467 1465 1463 1460 1458 1455 1452 1449 1446 1443 1439 1436 1432 1429 1425 1422 1418 1415 1411 1408 1404 1401 1397 1394 1391 1387 1384 1381 1378 1376 1373 1371